DL5ARK Weather Reports


Display with metric or nautical units.
time (UTC)temp
F
wind
direction
speed
MPH
gust
MPH
rain 1hr
in
rain 24hr
in
rain mn
in
humidity
%
barometer
mb
20260904045105 57 0 0.0 0.0 0.00 0.00 0.00 90 1004.7
20260904044806 56 0 0.0 0.0 0.00 0.00 0.00 90 1004.7
20260904044506 57 67 0.0 0.0 0.00 0.00 0.00 90 1004.7
20260904044205 56 337 0.0 0.0 0.00 0.00 0.00 90 1004.7
20260904043605 56 67 1.0 1.0 0.00 0.00 0.00 90 1004.7
20260904043306 56 315 0.0 0.0 0.00 0.00 0.00 89 1004.7
20260904043005 56 67 0.0 0.0 0.00 0.00 0.00 89 1004.7
20260904042705 56 0 3.0 3.0 0.00 0.00 0.00 89 1004.7
20260904042406 56 135 0.0 0.0 0.00 0.00 0.00 89 1004.7
20260904042106 55 225 2.0 2.0 0.00 0.00 0.00 88 1004.7
20260904041808 55 225 1.0 1.0 0.00 0.00 0.00 88 1004.7
20260904041506 55 67 0.0 0.0 0.00 0.00 0.00 88 1004.7
20260904041205 55 337 0.0 0.0 0.00 0.00 0.00 88 1004.7
20260904040906 55 90 0.0 0.0 0.00 0.00 0.00 87 1004.7
20260904040606 54 0 1.0 1.0 0.00 0.00 0.00 87 1005.0
20260904040305 55 90 0.0 0.0 0.00 0.00 0.00 87 1004.7
20260904040007 55 337 0.0 0.0 0.00 0.00 0.00 88 1005.0
20260904035406 55 180 0.0 0.0 0.00 0.00 0.00 88 1005.0
20260904035106 55 180 0.0 0.0 0.00 0.00 0.00 88 1005.0
20260904034806 55 337 0.0 0.0 0.00 0.00 0.00 88 1005.2
20260904034506 55 202 0.0 0.0 0.00 0.00 0.00 87 1005.2
20260904034206 55 202 0.0 0.0 0.00 0.00 0.00 88 1005.2
20260904033906 55 225 0.0 0.0 0.00 0.00 0.00 88 1005.2
20260904033306 55 337 0.0 0.0 0.00 0.00 0.00 87 1005.2
20260904033006 55 337 0.0 0.0 0.00 0.00 0.00 88 1005.2
20260904032705 55 337 0.0 0.0 0.00 0.00 0.00 87 1005.0
20260904032406 55 337 0.0 0.0 0.00 0.00 0.00 87 1005.0
20260904032106 55 45 0.0 0.0 0.00 0.00 0.00 87 1005.0
20260904031806 55 135 0.0 0.0 0.00 0.00 0.00 87 1005.0
20260904031205 55 135 0.0 0.0 0.00 0.00 0.00 87 1005.0
20260904030906 55 135 0.0 0.0 0.00 0.00 0.00 87 1005.0
20260904030606 55 90 0.0 0.0 0.00 0.00 0.00 87 1005.0
20260904030306 55 90 0.0 0.0 0.00 0.00 0.00 87 1005.2
20260904030006 55 67 0.0 0.0 0.00 0.00 0.00 87 1005.2
20260904025706 55 67 0.0 0.0 0.00 0.00 0.00 87 1005.2
20260904025106 55 315 0.0 0.0 0.00 0.00 0.00 87 1005.2
20260904024806 55 315 0.0 0.0 0.00 0.00 0.00 87 1005.2
20260904024506 55 90 0.0 0.0 0.00 0.00 0.00 87 1005.2
20260904024206 55 180 0.0 0.0 0.00 0.00 0.00 87 1005.2
20260904023906 55 180 0.0 0.0 0.00 0.00 0.00 88 1005.2
20260904023606 55 180 0.0 0.0 0.00 0.00 0.00 88 1005.2
20260904023005 56 180 0.0 0.0 0.00 0.00 0.00 88 1005.2
20260904022706 56 180 0.0 0.0 0.00 0.00 0.00 88 1005.2
20260904022405 56 180 0.0 0.0 0.00 0.00 0.00 88 1005.5
20260904022106 56 90 0.0 0.0 0.00 0.00 0.00 88 1005.5
20260904021805 56 90 0.0 0.0 0.00 0.00 0.00 88 1005.5
20260904021506 56 0 0.0 0.0 0.00 0.00 0.00 88 1005.5
20260904020906 56 90 2.0 2.0 0.00 0.00 0.00 87 1005.7
20260904020606 56 225 0.0 0.0 0.00 0.00 0.00 87 1005.7
20260904020305 56 337 0.0 0.0 0.00 0.00 0.00 87 1005.7
20260904020006 55 90 0.0 0.0 0.00 0.00 0.00 87 1005.7
20260904015706 55 90 0.0 0.0 0.00 0.00 0.00 87 1005.7
20260904015406 55 90 0.0 0.0 0.00 0.00 0.00 87 1005.7
20260904014805 55 90 0.0 0.0 0.00 0.00 0.00 87 1005.7
20260904014505 55 180 0.0 0.0 0.00 0.00 0.00 87 1005.7
20260904014206 55 180 0.0 0.0 0.00 0.00 0.00 87 1005.7
20260904013906 55 337 0.0 0.0 0.00 0.00 0.00 88 1005.7
20260904013605 56 180 0.0 0.0 0.00 0.00 0.00 88 1005.7
20260904013306 56 180 0.0 0.0 0.00 0.00 0.00 88 1005.7
20260904012705 56 135 0.0 0.0 0.00 0.00 0.00 88 1005.7
20260904012406 56 337 0.0 0.0 0.00 0.00 0.00 88 1006.0
20260904012106 56 67 0.0 0.0 0.00 0.00 0.00 88 1006.0
20260904011807 56 180 0.0 0.0 0.00 0.00 0.00 87 1006.0
20260904011505 56 45 0.0 0.0 0.00 0.00 0.00 87 1006.2
20260904011206 55 270 1.0 2.0 0.00 0.00 0.00 86 1006.2
20260904010606 55 0 0.0 0.0 0.00 0.00 0.00 86 1006.2
20260904010307 54 0 1.0 1.0 0.00 0.00 0.00 86 1006.2
20260904010005 54 67 0.0 0.0 0.00 0.00 0.00 85 1006.0
20260904005706 54 90 1.0 1.0 0.00 0.00 0.00 85 1005.7
20260904005405 54 180 0.0 0.0 0.00 0.00 0.00 85 1006.2
20260904005105 54 0 0.0 0.0 0.00 0.00 0.00 85 1006.2
20260904004507 54 337 0.0 0.0 0.00 0.00 0.00 85 1006.2
20260904004206 54 270 0.0 0.0 0.00 0.00 0.00 85 1006.2
20260904003906 54 270 1.0 1.0 0.00 0.00 0.00 85 1006.2
20260904003305 55 180 0.0 0.0 0.00 0.00 0.00 85 1006.2
20260904003006 54 337 0.0 0.0 0.00 0.00 0.00 85 1006.2
20260904002406 55 180 0.0 0.0 0.00 0.00 0.00 85 1006.2
20260904002105 55 180 0.0 0.0 0.00 0.00 0.00 85 1006.2
20260904001806 55 90 0.0 0.0 0.00 0.00 0.00 85 1006.2
20260904001507 55 337 0.0 0.0 0.00 0.00 0.00 84 1006.2
20260904001206 55 180 0.0 0.0 0.00 0.00 0.00 84 1006.5
20260904000905 54 337 0.0 0.0 0.00 0.00 0.00 85 1006.5
20260904000305 55 157 0.0 0.0 0.00 0.00 0.00 85 1006.7
20260904000005 55 157 0.0 0.0 0.00 0.00 0.00 85 1006.7
20260903235706 55 90 0.0 0.0 0.00 0.00 0.00 85 1006.7
20260903235406 55 90 0.0 0.0 0.00 0.00 0.00 85 1006.7
20260903235106 55 90 0.0 0.0 0.00 0.00 0.00 85 1006.7
20260903234806 55 67 0.0 0.0 0.00 0.00 0.00 85 1006.5
20260903234509 55 67 0.0 0.0 0.00 0.00 0.00 86 1006.7
20260903234205 55 90 0.0 0.0 0.00 0.00 0.00 86 1006.7
20260903233906 55 90 0.0 0.0 0.00 0.00 0.00 85 1006.7
20260903233606 55 90 0.0 0.0 0.00 0.00 0.00 85 1006.7
20260903233305 56 337 0.0 0.0 0.00 0.00 0.00 85 1006.7
20260903233006 56 270 0.0 0.0 0.00 0.00 0.00 85 1007.0
20260903232706 56 337 0.0 0.0 0.00 0.00 0.00 85 1007.0
20260903232106 56 270 0.0 0.0 0.00 0.00 0.00 85 1007.2
20260903231806 56 270 0.0 0.0 0.00 0.00 0.00 85 1007.2
20260903231506 56 270 0.0 0.0 0.00 0.00 0.00 85 1007.0
20260903231206 56 337 0.0 0.0 0.00 0.00 0.00 85 1007.2
20260903230905 56 270 0.0 0.0 0.00 0.00 0.00 85 1007.2
20260903230606 56 337 0.0 0.0 0.00 0.00 0.00 85 1007.2
20260903230309 56 337 0.0 0.0 0.00 0.00 0.00 84 1007.0
20260903230005 56 90 0.0 0.0 0.00 0.00 0.00 85 1007.2
20260903225711 56 45 0.0 0.0 0.00 0.00 0.00 85 1007.2
20260903225405 56 45 0.0 0.0 0.00 0.00 0.00 85 1007.2
20260903225105 56 337 0.0 0.0 0.00 0.00 0.00 85 1007.2
20260903224806 57 337 0.0 0.0 0.00 0.00 0.00 86 1007.2
20260903224205 57 180 0.0 0.0 0.00 0.00 0.00 85 1007.2
20260903223906 57 180 0.0 0.0 0.00 0.00 0.00 85 1007.2
20260903223606 57 180 0.0 0.0 0.00 0.00 0.00 85 1007.2
20260903223306 57 180 0.0 0.0 0.00 0.00 0.00 85 1007.2
20260903223005 57 315 0.0 0.0 0.00 0.00 0.00 85 1007.2
20260903222407 57 315 0.0 0.0 0.00 0.00 0.00 84 1007.2
20260903222106 57 315 0.0 0.0 0.00 0.00 0.00 85 1007.2
20260903221806 57 315 0.0 0.0 0.00 0.00 0.00 85 1007.2
20260903221507 57 337 0.0 0.0 0.00 0.00 0.00 85 1007.2
20260903221205 57 315 0.0 0.0 0.00 0.00 0.00 84 1007.2
20260903220906 57 292 0.0 0.0 0.00 0.00 0.00 84 1007.2
20260903220305 57 337 0.0 0.0 0.00 0.00 0.00 84 1007.2
20260903220006 57 22 0.0 0.0 0.00 0.00 0.00 85 1007.2
20260903215706 57 337 0.0 0.0 0.00 0.00 0.08 85 1007.2
20260903215406 57 180 0.0 0.0 0.00 0.00 0.08 85 1007.2
20260903215106 57 337 0.0 0.0 0.00 0.00 0.08 85 1007.2
20260903214806 57 90 0.0 0.0 0.00 0.00 0.08 85 1007.2
20260903214508 57 90 0.0 0.0 0.00 0.00 0.08 85 1007.2
20260903214206 57 67 0.0 0.0 0.00 0.00 0.08 84 1007.2
20260903213905 57 45 0.0 0.0 0.00 0.00 0.08 84 1007.2
20260903213605 57 315 0.0 0.0 0.00 0.00 0.08 84 1007.2
20260903213305 57 67 0.0 0.0 0.00 0.00 0.08 84 1007.2
20260903213006 57 67 0.0 0.0 0.00 0.00 0.08 84 1006.7
20260903212705 57 22 0.0 0.0 0.00 0.00 0.08 84 1007.0
20260903212408 57 22 0.0 0.0 0.00 0.00 0.08 84 1007.2
20260903212105 57 22 0.0 0.0 0.00 0.00 0.08 83 1007.2
20260903211805 57 0 0.0 0.0 0.00 0.00 0.08 83 1007.2
20260903211505 57 337 0.0 0.0 0.00 0.00 0.08 83 1007.2
20260903211206 57 22 0.0 0.0 0.00 0.00 0.08 84 1007.2
20260903210606 57 337 0.0 0.0 0.00 0.00 0.08 84 1007.2
20260903210306 57 0 0.0 0.0 0.00 0.00 0.08 84 1007.0
20260903210006 57 180 0.0 0.0 0.00 0.00 0.08 83 1007.2
20260903205706 57 180 0.0 0.0 0.00 0.00 0.08 83 1007.2
20260903205407 57 180 0.0 0.0 0.00 0.00 0.08 84 1007.2
20260903205108 57 180 0.0 0.0 0.00 0.00 0.08 84 1007.2
20260903204806 57 180 0.0 0.0 0.00 0.00 0.08 84 1007.0
20260903204505 57 180 0.0 0.0 0.00 0.00 0.08 84 1007.2
20260903204206 57 337 0.0 0.0 0.00 0.00 0.08 84 1007.2
20260903203906 57 67 0.0 0.0 0.00 0.00 0.08 84 1007.2
20260903203605 57 337 0.0 0.0 0.00 0.00 0.08 84 1007.2
20260903203306 58 135 0.0 0.0 0.00 0.00 0.08 84 1007.2
20260903202707 57 157 1.0 1.0 0.00 0.00 0.08 83 1007.5
20260903202406 58 337 2.0 2.0 0.00 0.00 0.08 84 1007.7
20260903202106 58 90 0.0 0.0 0.00 0.00 0.08 84 1007.5
20260903201806 58 292 0.0 0.0 0.00 0.00 0.08 84 1007.5
20260903201505 58 90 0.0 0.0 0.00 0.00 0.08 84 1007.2
20260903201205 58 225 0.0 0.0 0.00 0.00 0.08 84 1007.2
20260903200605 59 225 0.0 0.0 0.00 0.00 0.08 84 1007.2
20260903200305 59 225 0.0 0.0 0.00 0.00 0.08 84 1007.5
20260903200006 59 225 0.0 0.0 0.00 0.00 0.08 84 1007.5
20260903195706 59 337 0.0 0.0 0.00 0.00 0.08 84 1007.2
20260903195406 59 225 0.0 0.0 0.00 0.00 0.08 85 1007.2
20260903195108 59 225 0.0 0.0 0.00 0.00 0.08 84 1007.2
20260903194806 59 225 0.0 0.0 0.00 0.00 0.08 84 1007.2
20260903194506 59 180 0.0 0.0 0.00 0.00 0.08 84 1007.2
20260903194205 59 180 0.0 0.0 0.00 0.00 0.08 84 1007.2
20260903193907 59 90 0.0 0.0 0.00 0.00 0.08 84 1007.2
20260903193606 59 337 0.0 0.0 0.00 0.00 0.08 84 1007.0
20260903193305 59 337 0.0 0.0 0.00 0.00 0.08 84 1007.2
20260903192706 59 315 0.0 0.0 0.00 0.00 0.08 84 1007.2
20260903192405 59 270 0.0 0.0 0.00 0.00 0.08 84 1007.2
20260903192106 59 270 0.0 0.0 0.00 0.00 0.08 84 1007.2
20260903191805 59 270 0.0 0.0 0.00 0.00 0.08 84 1007.2
20260903191505 59 45 0.0 0.0 0.00 0.00 0.08 84 1007.2
20260903190905 59 337 0.0 0.0 0.00 0.00 0.08 84 1007.0
20260903190606 59 112 0.0 0.0 0.00 0.00 0.08 84 1007.2
20260903190306 60 337 0.0 0.0 0.00 0.00 0.08 83 1007.0
20260903190006 59 90 0.0 0.0 0.00 0.00 0.08 83 1007.2
20260903185406 60 180 0.0 0.0 0.00 0.00 0.08 83 1007.2
20260903185105 60 337 0.0 0.0 0.00 0.00 0.08 82 1007.2
20260903184806 60 67 0.0 0.0 0.00 0.00 0.08 82 1007.2
20260903184506 60 0 0.0 0.0 0.00 0.00 0.08 82 1007.2
20260903184207 60 0 0.0 0.0 0.00 0.00 0.08 82 1007.2
20260903183906 59 337 0.0 0.0 0.00 0.00 0.08 82 1007.5
20260903183609 59 0 0.0 0.0 0.00 0.00 0.08 82 1007.2
20260903183305 60 45 0.0 0.0 0.00 0.00 0.08 82 1007.5
20260903183006 60 45 0.0 0.0 0.00 0.00 0.08 82 1007.2
20260903182705 60 337 0.0 0.0 0.00 0.00 0.08 82 1007.0
20260903182406 60 45 0.0 0.0 0.00 0.00 0.08 82 1007.2
20260903182106 60 45 0.0 0.0 0.00 0.00 0.08 82 1007.2
20260903181807 60 90 0.0 0.0 0.00 0.00 0.08 82 1007.0
20260903181508 60 180 0.0 0.0 0.00 0.00 0.08 82 1007.2
20260903181206 60 337 0.0 0.0 0.00 0.00 0.08 82 1007.2
20260903180906 61 337 0.0 0.0 0.00 0.00 0.08 82 1007.2
20260903180606 61 67 0.0 0.0 0.00 0.00 0.08 83 1007.2
20260903180305 61 337 0.0 0.0 0.00 0.00 0.08 82 1007.2
20260903180005 61 0 1.0 1.0 0.00 0.00 0.08 82 1007.2
20260903175706 61 45 0.0 0.0 0.00 0.00 0.08 82 1007.2
20260903175106 61 337 0.0 0.0 0.00 0.00 0.08 82 1007.2
20260903174806 62 45 0.0 0.0 0.00 0.00 0.08 82 1007.2
20260903174506 62 67 0.0 0.0 0.00 0.00 0.08 82 1007.0
20260903174205 61 67 0.0 0.0 0.00 0.00 0.08 82 1007.0
20260903173906 62 337 0.0 0.0 0.00 0.00 0.08 82 1007.0
20260903173606 62 67 0.0 0.0 0.00 0.00 0.08 82 1007.0
20260903173308 62 67 0.0 0.0 0.00 0.00 0.08 82 1007.0
20260903173005 62 67 0.0 0.0 0.00 0.00 0.08 82 1007.0
20260903172706 62 90 0.0 0.0 0.00 0.00 0.08 82 1007.0
20260903172405 62 90 0.0 0.0 0.00 0.00 0.08 81 1007.0
20260903172106 62 67 1.0 1.0 0.00 0.00 0.08 82 1007.0
20260903171507 62 90 0.0 0.0 0.00 0.00 0.08 81 1006.7
20260903171206 62 90 0.0 0.0 0.00 0.00 0.08 81 1006.7
20260903170906 62 135 0.0 0.0 0.00 0.00 0.08 81 1006.7
20260903170606 63 135 0.0 0.0 0.00 0.00 0.08 81 1006.7
20260903170305 62 135 0.0 0.0 0.00 0.00 0.08 81 1006.7
20260903170005 62 135 0.0 0.0 0.00 0.00 0.08 81 1006.7
20260903165708 62 135 0.0 0.0 0.00 0.00 0.08 81 1006.7
20260903165405 62 135 0.0 0.0 0.00 0.00 0.08 81 1006.7
20260903165105 62 135 0.0 0.0 0.00 0.00 0.08 81 1007.0
20260903164806 62 135 0.0 0.0 0.00 0.00 0.08 81 1007.0
20260903164506 62 135 0.0 0.0 0.00 0.00 0.08 81 1007.0
20260903164206 62 337 0.0 0.0 0.00 0.00 0.08 81 1007.2
20260903163908 62 135 0.0 0.0 0.00 0.00 0.08 81 1007.0
20260903163605 62 135 0.0 0.0 0.00 0.00 0.08 81 1007.0
20260903163305 63 135 0.0 0.0 0.00 0.00 0.08 81 1007.2
20260903163006 63 135 0.0 0.0 0.00 0.00 0.08 81 1007.2
20260903162706 62 337 0.0 0.0 0.00 0.00 0.08 81 1007.2
20260903162405 62 337 0.0 0.0 0.00 0.00 0.08 81 1007.2
20260903161805 63 90 0.0 0.0 0.00 0.00 0.08 82 1007.2
20260903161505 63 90 0.0 0.0 0.00 0.00 0.08 81 1007.2
20260903161205 63 180 0.0 0.0 0.00 0.00 0.08 81 1007.2
20260903160905 63 112 0.0 0.0 0.00 0.00 0.08 81 1007.2
20260903160606 63 112 0.0 0.0 0.00 0.00 0.08 81 1007.2
20260903160306 63 135 0.0 0.0 0.00 0.00 0.08 81 1007.2
20260903155705 63 90 0.0 0.0 0.00 0.00 0.08 81 1007.2
20260903155406 63 90 0.0 0.0 0.00 0.00 0.08 81 1007.2
20260903155106 63 90 0.0 0.0 0.00 0.00 0.08 80 1007.2
20260903154806 63 90 0.0 0.0 0.00 0.00 0.08 81 1007.5
20260903154508 63 112 0.0 0.0 0.00 0.00 0.08 80 1007.2
20260903154207 63 90 0.0 0.0 0.00 0.00 0.08 80 1007.5
20260903153905 63 90 0.0 0.0 0.00 0.00 0.08 80 1007.5
20260903153606 63 90 0.0 0.0 0.00 0.00 0.08 80 1007.5
20260903153305 63 90 0.0 0.0 0.00 0.00 0.08 81 1007.5
20260903153005 63 90 0.0 0.0 0.00 0.00 0.08 81 1007.5
20260903152407 63 337 0.0 0.0 0.00 0.00 0.08 80 1007.5
20260903152106 63 90 0.0 0.0 0.00 0.00 0.08 80 1007.5
20260903151805 63 135 0.0 0.0 0.00 0.00 0.08 80 1007.5
20260903151505 63 135 0.0 0.0 0.00 0.00 0.08 80 1007.7
20260903151206 63 157 0.0 0.0 0.00 0.00 0.08 80 1007.5
20260903150606 63 180 0.0 0.0 0.00 0.00 0.08 79 1007.5
20260903150305 63 90 0.0 0.0 0.00 0.00 0.08 79 1007.5
20260903150005 63 90 0.0 0.0 0.00 0.00 0.08 79 1007.7
20260903145706 63 90 0.0 0.0 0.00 0.00 0.08 78 1007.5
20260903145405 63 90 0.0 0.0 0.00 0.00 0.08 79 1007.5
20260903144805 63 112 0.0 0.0 0.00 0.00 0.08 78 1007.7
20260903144506 63 112 0.0 0.0 0.00 0.00 0.08 78 1007.7
20260903144206 63 90 0.0 0.0 0.00 0.00 0.08 79 1007.7
20260903143905 63 90 0.0 0.0 0.00 0.00 0.08 78 1007.7
20260903143306 63 315 0.0 0.0 0.00 0.00 0.08 77 1007.7
20260903143006 63 337 0.0 0.0 0.00 0.00 0.06 77 1008.0
20260903142705 63 270 0.0 0.0 0.00 0.00 0.06 78 1008.0
20260903142405 63 270 0.0 0.0 0.00 0.00 0.06 77 1008.0
20260903142105 63 315 1.0 1.0 0.00 0.00 0.06 77 1008.0
20260903141808 63 315 2.0 2.0 0.00 0.00 0.06 77 1008.2
20260903141507 63 0 1.0 1.0 0.00 0.00 0.06 77 1008.0
20260903141206 64 337 2.0 2.0 0.00 0.00 0.06 78 1008.0
20260903140906 64 247 0.0 0.0 0.00 0.00 0.06 78 1007.7
20260903140607 64 225 0.0 0.0 0.00 0.00 0.06 78 1007.7
20260903140305 64 225 2.0 2.0 0.00 0.00 0.06 78 1008.0
20260903140009 64 225 2.0 2.0 0.00 0.00 0.06 78 1008.0
20260903135705 64 180 3.0 3.0 0.00 0.00 0.06 78 1007.7
20260903135406 64 225 2.0 2.0 0.00 0.00 0.06 78 1007.7
20260903135105 63 247 1.0 1.0 0.00 0.00 0.06 76 1007.7
20260903134806 63 247 0.0 0.0 0.00 0.00 0.04 76 1008.0
20260903134505 63 337 1.0 2.0 0.00 0.00 0.04 76 1008.2
20260903133906 63 270 4.0 4.0 0.00 0.00 0.04 75 1008.0
20260903133607 63 202 3.0 3.0 0.00 0.00 0.04 75 1008.0
20260903133305 63 180 3.0 3.0 0.00 0.00 0.04 74 1008.0
20260903133006 63 270 5.0 5.0 0.00 0.00 0.02 75 1008.2
20260903132706 63 292 4.0 4.0 0.00 0.00 0.02 74 1008.0
20260903132406 64 315 0.0 0.0 0.00 0.00 0.02 73 1008.0
20260903132106 63 270 1.0 2.0 0.00 0.00 0.02 73 1007.7
20260903131809 64 270 1.0 1.0 0.00 0.00 0.02 73 1007.7
20260903131506 64 270 1.0 1.0 0.00 0.00 0.02 73 1007.5
20260903131206 64 225 1.0 1.0 0.00 0.00 0.02 73 1007.5
20260903130905 64 337 1.0 2.0 0.00 0.00 0.00 72 1007.7
20260903130605 64 315 3.0 3.0 0.00 0.00 0.00 72 1007.7
20260903130306 64 225 4.0 4.0 0.00 0.00 0.00 71 1007.7
20260903125706 65 247 2.0 2.0 0.00 0.00 0.00 70 1007.7
20260903125406 65 270 1.0 1.0 0.00 0.00 0.00 69 1007.7
20260903125106 65 292 2.0 2.0 0.00 0.00 0.00 69 1007.7
20260903124805 65 315 1.0 1.0 0.00 0.00 0.00 69 1007.7
20260903124206 65 292 5.0 5.0 0.00 0.00 0.00 68 1007.7
20260903123906 65 225 2.0 2.0 0.00 0.00 0.00 69 1007.7
20260903123606 65 225 4.0 4.0 0.00 0.00 0.00 68 1007.7
20260903123305 65 225 3.0 3.0 0.00 0.00 0.00 68 1007.7
20260903123005 65 225 5.0 5.0 0.00 0.00 0.00 69 1008.0
20260903122405 65 247 5.0 5.0 0.00 0.00 0.00 68 1008.0
20260903122106 65 270 2.0 2.0 0.00 0.00 0.00 68 1008.0
20260903121807 65 270 2.0 2.0 0.00 0.00 0.00 67 1007.7
20260903121506 65 337 6.0 6.0 0.00 0.00 0.00 66 1008.0
20260903121206 65 225 7.0 7.0 0.00 0.00 0.00 65 1007.7
20260903120606 66 247 4.0 4.0 0.00 0.00 0.00 62 1007.5
20260903120306 67 337 6.0 7.0 0.00 0.00 0.00 62 1007.5
20260903120005 67 202 4.0 4.0 0.00 0.00 0.00 61 1007.7
20260903115706 67 270 6.0 6.0 0.00 0.00 0.00 61 1007.7
20260903115406 68 337 9.0 9.0 0.00 0.00 0.00 61 1007.7
20260903115108 67 337 4.0 4.0 0.00 0.00 0.00 61 1007.7
20260903114806 67 270 4.0 4.0 0.00 0.00 0.00 61 1008.0
20260903114505 68 225 5.0 5.0 0.00 0.00 0.00 61 1007.7
20260903114205 68 225 7.0 7.0 0.00 0.00 0.00 59 1007.7
20260903113906 68 337 2.0 2.0 0.00 0.00 0.00 59 1007.5
20260903113305 68 270 6.0 6.0 0.00 0.00 0.00 58 1007.5
20260903113005 68 337 11.0 11.0 0.00 0.00 0.00 59 1007.7
20260903112707 69 225 8.0 8.0 0.00 0.00 0.00 58 1007.7
20260903112406 69 337 2.0 2.0 0.00 0.00 0.00 59 1007.7
20260903112106 69 225 8.0 8.0 0.00 0.00 0.00 60 1007.7
20260903111809 69 225 4.0 5.0 0.00 0.00 0.00 59 1008.0
20260903111506 70 270 3.0 3.0 0.00 0.00 0.00 61 1007.7
20260903111206 69 225 6.0 6.0 0.00 0.00 0.00 62 1007.7
20260903110906 69 225 8.0 8.0 0.00 0.00 0.00 60 1008.0
20260903110605 69 225 2.0 2.0 0.00 0.00 0.00 61 1007.7
20260903110006 69 247 5.0 5.0 0.00 0.00 0.00 60 1008.0
20260903105706 70 225 6.0 6.0 0.00 0.00 0.00 62 1007.7
20260903105405 70 202 3.0 3.0 0.00 0.00 0.00 63 1008.0
20260903105105 69 247 7.0 7.0 0.00 0.00 0.00 63 1008.0
20260903104806 69 225 11.0 11.0 0.00 0.00 0.00 62 1008.0
20260903104506 70 225 5.0 5.0 0.00 0.00 0.00 61 1008.2
20260903104206 69 337 8.0 8.0 0.00 0.00 0.00 61 1008.2
20260903103905 69 337 7.0 7.0 0.00 0.00 0.00 62 1008.2
20260903103306 69 180 8.0 8.0 0.00 0.00 0.00 62 1008.0
20260903103005 69 270 3.0 3.0 0.00 0.00 0.00 62 1008.2
20260903102705 69 337 8.0 8.0 0.00 0.00 0.00 63 1008.2
20260903102406 69 315 3.0 3.0 0.00 0.00 0.00 63 1008.2
20260903102108 68 247 4.0 4.0 0.00 0.00 0.00 63 1008.2
20260903101805 69 202 2.0 2.0 0.00 0.00 0.00 63 1008.2
20260903101506 69 270 4.0 4.0 0.00 0.00 0.00 63 1008.0
20260903101206 69 337 3.0 3.0 0.00 0.00 0.00 64 1008.2
20260903100906 69 225 4.0 4.0 0.00 0.00 0.00 63 1008.2
20260903100306 69 225 5.0 5.0 0.00 0.00 0.00 66 1008.5
20260903100005 68 180 3.0 3.0 0.00 0.00 0.00 66 1008.5
20260903095706 68 225 4.0 4.0 0.00 0.00 0.00 67 1008.5
20260903095406 68 337 2.0 2.0 0.00 0.00 0.00 66 1008.5
20260903095105 68 225 5.0 5.0 0.00 0.00 0.00 67 1008.5
20260903094506 67 337 2.0 2.0 0.00 0.00 0.00 68 1008.5
20260903094205 67 247 2.0 2.0 0.00 0.00 0.00 67 1008.5
20260903093906 67 180 0.0 0.0 0.00 0.00 0.00 68 1008.5
20260903093606 67 225 3.0 3.0 0.00 0.00 0.00 69 1008.7
20260903093306 67 270 3.0 3.0 0.00 0.00 0.00 69 1008.7
20260903093009 67 225 4.0 4.0 0.00 0.00 0.00 69 1008.7
20260903092705 67 337 3.0 3.0 0.00 0.00 0.00 69 1008.7
20260903092406 67 315 3.0 4.0 0.00 0.00 0.00 70 1008.7
20260903092106 67 202 2.0 2.0 0.00 0.00 0.00 72 1008.7
20260903091805 67 270 0.0 0.0 0.00 0.00 0.00 71 1008.7
20260903091506 65 247 2.0 2.0 0.00 0.00 0.00 71 1008.7
20260903090905 65 270 2.0 2.0 0.00 0.00 0.00 71 1008.7
20260903090606 65 337 1.0 1.0 0.00 0.00 0.00 71 1008.7
20260903090305 65 337 5.0 5.0 0.00 0.00 0.00 73 1008.7
20260903090006 65 315 3.0 3.0 0.00 0.00 0.00 73 1008.7
20260903085406 63 225 7.0 7.0 0.00 0.00 0.00 73 1008.7
20260903085105 64 270 0.0 0.0 0.00 0.00 0.00 75 1008.7
20260903084805 64 202 3.0 4.0 0.00 0.00 0.00 75 1008.9
20260903084506 64 337 1.0 1.0 0.00 0.00 0.00 76 1008.9
20260903084206 63 225 3.0 3.0 0.00 0.00 0.00 76 1008.9
20260903083606 62 247 2.0 2.0 0.00 0.00 0.00 76 1008.9
20260903083306 62 225 1.0 2.0 0.00 0.00 0.00 77 1009.2
20260903083006 62 225 3.0 3.0 0.00 0.00 0.00 78 1009.2
20260903082705 62 270 0.0 0.0 0.00 0.00 0.00 79 1009.2
20260903082406 62 202 1.0 1.0 0.00 0.00 0.00 79 1009.2
20260903082109 62 90 0.0 0.0 0.00 0.00 0.00 79 1009.2
20260903081806 61 337 0.0 0.0 0.00 0.00 0.00 79 1009.2
20260903081505 61 315 1.0 1.0 0.00 0.00 0.00 79 1008.9
20260903081206 60 67 1.0 1.0 0.00 0.00 0.00 79 1008.9
20260903080905 59 0 1.0 1.0 0.00 0.00 0.00 79 1008.9
20260903080306 59 315 0.0 0.0 0.00 0.00 0.00 80 1008.7
20260903080005 59 22 1.0 1.0 0.00 0.00 0.00 80 1008.7
20260903075706 59 315 0.0 0.0 0.00 0.00 0.00 80 1008.7
20260903075405 59 90 1.0 1.0 0.00 0.00 0.00 81 1008.5
20260903075106 59 90 0.0 0.0 0.00 0.00 0.00 81 1008.5
20260903074808 59 135 0.0 0.0 0.00 0.00 0.00 81 1008.5
20260903074506 60 180 0.0 0.0 0.00 0.00 0.00 81 1008.7
20260903074205 59 112 0.0 0.0 0.00 0.00 0.00 82 1008.7
20260903073905 59 67 0.0 0.0 0.00 0.00 0.00 82 1008.7
20260903073605 59 90 0.0 0.0 0.00 0.00 0.00 82 1008.5
20260903073306 59 90 0.0 0.0 0.00 0.00 0.00 82 1008.5
20260903072706 59 112 0.0 0.0 0.00 0.00 0.00 83 1008.5
20260903072405 59 67 0.0 0.0 0.00 0.00 0.00 83 1008.5
20260903072105 58 67 0.0 0.0 0.00 0.00 0.00 83 1008.5
20260903071806 58 90 0.0 0.0 0.00 0.00 0.00 83 1008.7
20260903071505 57 337 1.0 1.0 0.00 0.00 0.00 83 1008.7
20260903071206 57 112 0.0 0.0 0.00 0.00 0.00 83 1008.7
20260903070906 57 337 0.0 0.0 0.00 0.00 0.00 83 1008.7
20260903070605 57 337 0.0 0.0 0.00 0.00 0.00 83 1008.7
20260903070305 57 112 0.0 0.0 0.00 0.00 0.00 83 1008.9
20260903070007 56 90 0.0 0.0 0.00 0.00 0.00 83 1008.7
20260903065408 56 90 0.0 0.0 0.00 0.00 0.00 83 1008.9
20260903065106 56 337 1.0 1.0 0.00 0.00 0.00 83 1009.2
20260903064806 56 45 0.0 0.0 0.00 0.00 0.00 83 1009.2
20260903064506 56 45 0.0 0.0 0.00 0.00 0.00 83 1009.2
20260903064206 55 67 0.0 0.0 0.00 0.00 0.00 83 1009.2
20260903063906 55 337 0.0 0.0 0.00 0.00 0.00 84 1009.2
20260903063609 55 45 0.0 0.0 0.00 0.00 0.00 83 1009.2
20260903063305 54 67 0.0 0.0 0.00 0.00 0.00 84 1009.2
20260903063006 54 90 1.0 1.0 0.00 0.00 0.00 83 1008.9
20260903062705 54 90 1.0 1.0 0.00 0.00 0.00 84 1009.2
20260903062405 53 90 0.0 0.0 0.00 0.00 0.00 84 1008.9
20260903062105 53 67 0.0 0.0 0.00 0.00 0.00 83 1009.2
20260903061505 52 90 1.0 1.0 0.00 0.00 0.00 83 1009.2
20260903061205 52 90 1.0 1.0 0.00 0.00 0.00 83 1009.2
20260903060906 52 90 0.0 0.0 0.00 0.00 0.00 82 1009.2
20260903060606 52 90 0.0 0.0 0.00 0.00 0.00 82 1009.2
20260903060005 51 67 1.0 1.0 0.00 0.00 0.00 82 1009.2
20260903055705 51 90 0.0 0.0 0.00 0.00 0.00 82 1009.2
20260903055406 51 90 0.0 0.0 0.00 0.00 0.00 81 1009.2
20260903055106 51 90 0.0 0.0 0.00 0.00 0.00 81 1009.2
20260903054505 50 337 0.0 0.0 0.00 0.00 0.00 81 1009.2
20260903054205 50 90 0.0 0.0 0.00 0.00 0.00 80 1009.2
20260903053905 50 90 0.0 0.0 0.00 0.00 0.00 80 1009.2
20260903053606 50 90 0.0 0.0 0.00 0.00 0.00 80 1009.2
20260903053306 50 90 0.0 0.0 0.00 0.00 0.00 80 1009.2
20260903053006 50 90 0.0 0.0 0.00 0.00 0.00 81 1009.2
20260903052706 50 90 0.0 0.0 0.00 0.00 0.00 80 1009.2
20260903052405 50 90 0.0 0.0 0.00 0.00 0.00 81 1008.9
20260903051806 48 90 0.0 0.0 0.00 0.00 0.00 81 1008.9
20260903051206 48 90 0.0 0.0 0.00 0.00 0.00 82 1008.7
20260903050906 48 90 0.0 0.0 0.00 0.00 0.00 83 1008.7
20260903050606 47 90 0.0 0.0 0.00 0.00 0.00 83 1008.7
20260903050306 47 90 0.0 0.0 0.00 0.00 0.00 83 1008.5
20260903050006 46 90 0.0 0.0 0.00 0.00 0.00 82 1008.7
20260903045706 46 337 0.0 0.0 0.00 0.00 0.00 81 1008.7
20260903045406 46 90 0.0 0.0 0.00 0.00 0.00 80 1008.7